�������l�o���
Date,Time,MP-1(��Sv/h),MP-2(��Sv/h),MP-3(��Sv/h),MP-4(��Sv/h),MP-5(��Sv/h),MP-6(��Sv/h),MP-7(��Sv/h),MP-8(��Sv/h),����,����(m/s),���J
2017/01/15,00:00,1.074,1.793,1.167,2.031,1.402,0.559,1.028,0.953,���쐼,7.3,��
2017/01/15,00:10,1.074,1.794,1.169,2.031,1.401,0.559,1.027,0.953,�쐼,6.8,��
2017/01/15,00:20,1.075,1.787,1.166,2.032,1.401,0.559,1.029,0.951,�쐼,8.2,��
2017/01/15,00:30,1.072,1.785,1.170,2.030,1.401,0.558,1.027,0.953,���쐼,6.9,��
2017/01/15,00:40,1.073,1.788,1.169,2.030,1.402,0.559,1.026,0.953,���쐼,7.5,��
2017/01/15,00:50,1.071,1.788,1.167,2.032,1.398,0.558,1.027,0.955,��,6.4,��
2017/01/15,01:00,1.069,1.788,1.167,2.033,1.397,0.557,1.026,0.954,���쐼,7.1,��
2017/01/15,01:10,1.072,1.785,1.165,2.030,1.396,0.558,1.025,0.955,���쐼,7.0,��
2017/01/15,01:20,1.071,1.790,1.167,2.031,1.399,0.559,1.025,0.951,��,6.8,��
2017/01/15,01:30,1.072,1.788,1.167,2.030,1.400,0.558,1.026,0.953,��,7.0,��
2017/01/15,01:40,1.073,1.789,1.165,2.029,1.396,0.558,1.026,0.953,��,5.6,��
2017/01/15,01:50,1.073,1.791,1.169,2.030,1.395,0.559,1.026,0.952,��,5.8,��
2017/01/15,02:00,1.071,1.791,1.168,2.032,1.398,0.558,1.026,0.953,��,4.9,��
2017/01/15,02:10,1.073,1.790,1.169,2.030,1.400,0.558,1.026,0.953,���k��,5.5,��
2017/01/15,02:20,1.073,1.785,1.167,2.034,1.401,0.560,1.027,0.953,���k��,5.4,��
2017/01/15,02:30,1.074,1.791,1.166,2.033,1.402,0.559,1.026,0.953,���k��,5.5,��
2017/01/15,02:40,1.074,1.788,1.168,2.031,1.402,0.559,1.026,0.952,�k��,4.3,��
2017/01/15,02:50,1.072,1.789,1.167,2.031,1.401,0.558,1.025,0.953,�k�k��,4.5,��
2017/01/15,03:00,1.075,1.792,1.168,2.031,1.402,0.556,1.026,0.953,�k�k��,3.7,��
2017/01/15,03:10,1.072,1.790,1.167,2.030,1.401,0.557,1.028,0.953,�k�k��,3.9,��
2017/01/15,03:20,1.072,1.792,1.169,2.032,1.397,0.558,1.027,0.954,�k��,3.5,��
2017/01/15,03:30,1.074,1.790,1.171,2.030,1.400,0.559,1.026,0.951,�k�k��,3.3,��
2017/01/15,03:40,1.072,1.794,1.167,2.032,1.404,0.558,1.026,0.953,�k�k��,4.0,��
2017/01/15,03:50,1.075,1.791,1.167,2.034,1.400,0.558,1.026,0.954,�k�k��,3.6,��
2017/01/15,04:00,1.071,1.791,1.168,2.030,1.400,0.557,1.027,0.954,�k�k��,2.8,��
2017/01/15,04:10,1.074,1.792,1.169,2.033,1.400,0.558,1.026,0.953,�k,1.8,��
2017/01/15,04:20,1.073,1.792,1.170,2.029,1.398,0.559,1.026,0.953,-,CALM,��
2017/01/15,04:30,1.072,1.792,1.169,2.033,1.397,0.559,1.025,0.952,��,3.0,��
2017/01/15,04:40,1.072,1.790,1.166,2.033,1.402,0.557,1.026,0.952,��,4.3,��
2017/01/15,04:50,1.072,1.790,1.167,2.032,1.401,0.556,1.025,0.952,���k��,4.6,��
2017/01/15,05:00,1.074,1.789,1.168,2.034,1.401,0.560,1.027,0.952,��,3.6,��
2017/01/15,05:10,1.072,1.790,1.168,2.033,1.400,0.556,1.026,0.950,���k��,5.9,��
2017/01/15,05:20,1.073,1.790,1.167,2.031,1.401,0.559,1.024,0.952,��,7.3,��
2017/01/15,05:30,1.072,1.792,1.166,2.031,1.401,0.557,1.025,0.950,�쐼,5.8,��
2017/01/15,05:40,1.074,1.787,1.166,2.031,1.396,0.559,1.026,0.952,�쐼,4.8,��
2017/01/15,05:50,1.069,1.788,1.167,2.031,1.397,0.557,1.023,0.951,�쐼,1.9,��
2017/01/15,06:00,1.070,1.783,1.164,2.032,1.397,0.557,1.027,0.952,��쓌,3.4,��
2017/01/15,06:10,1.070,1.784,1.167,2.030,1.397,0.558,1.026,0.953,��,1.7,��
2017/01/15,06:20,1.071,1.785,1.167,2.030,1.398,0.557,1.025,0.952,-,CALM,��
2017/01/15,06:30,1.071,1.787,1.167,2.032,1.397,0.559,1.026,0.951,���쓌,0.9,��
2017/01/15,06:40,1.071,1.784,1.165,2.030,1.396,0.557,1.024,0.953,���k��,0.8,��
2017/01/15,06:50,1.072,1.787,1.164,2.032,1.393,0.558,1.025,0.951,�쓌,1.2,��
2017/01/15,07:00,1.072,1.786,1.167,2.031,1.394,0.557,1.025,0.951,��,1.2,��
2017/01/15,07:10,1.072,1.786,1.167,2.032,1.395,0.557,1.026,0.952,-,CALM,��
2017/01/15,07:20,1.072,1.785,1.166,2.032,1.395,0.559,1.026,0.952,���k��,4.1,��
2017/01/15,07:30,1.071,1.788,1.166,2.031,1.395,0.557,1.026,0.952,�k��,4.0,��
2017/01/15,07:40,1.070,1.788,1.166,2.030,1.397,0.557,1.025,0.950,���k��,5.5,��
2017/01/15,07:50,1.071,1.788,1.167,2.032,1.398,0.557,1.025,0.952,���k��,7.7,��
2017/01/15,08:00,1.071,1.792,1.168,2.029,1.401,0.558,1.024,0.952,��,9.6,��
2017/01/15,08:10,1.074,1.790,1.168,2.031,1.400,0.559,1.026,0.952,��,13.0,��
2017/01/15,08:20,1.073,1.792,1.169,2.031,1.400,0.558,1.026,0.950,��,11.0,��
2017/01/15,08:30,1.075,1.790,1.166,2.034,1.401,0.558,1.026,0.952,��,9.1,��
2017/01/15,08:40,1.075,1.793,1.165,2.030,1.398,0.559,1.023,0.952,���k��,9.2,��
2017/01/15,08:50,1.074,1.789,1.167,2.028,1.396,0.556,1.022,0.951,���k��,8.2,��
2017/01/15,09:00,1.075,1.790,1.163,2.029,1.399,0.556,1.023,0.953,���k��,9.2,��
2017/01/15,09:10,1.076,1.787,1.167,2.029,1.400,0.559,1.024,0.953,���k��,9.0,��
2017/01/15,09:20,1.073,1.790,1.168,2.031,1.402,0.558,1.022,0.953,���k��,10.5,��
2017/01/15,09:30,1.074,1.792,1.171,2.033,1.400,0.557,1.023,0.953,���k��,8.2,��
2017/01/15,09:40,1.073,1.791,1.169,2.031,1.402,0.558,1.024,0.953,���k��,7.6,��
2017/01/15,09:50,1.075,1.790,1.169,2.029,1.402,0.557,1.023,0.953,���k��,6.9,��
2017/01/15,10:00,1.075,1.791,1.166,2.034,1.403,0.558,1.023,0.953,���k��,6.6,��
2017/01/15,10:10,1.076,1.793,1.171,2.033,1.403,0.560,1.024,0.953,���k��,7.7,��
2017/01/15,10:20,1.079,1.794,1.171,2.033,1.402,0.560,1.025,0.953,���k��,8.9,��
2017/01/15,10:30,1.075,1.796,1.172,2.032,1.404,0.560,1.025,0.952,���k��,7.6,��
2017/01/15,10:40,1.078,1.795,1.170,2.032,1.402,0.558,1.027,0.954,���k��,8.5,��
2017/01/15,10:50,1.077,1.793,1.171,2.035,1.405,0.558,1.026,0.955,�k��,6.0,��
2017/01/15,11:00,1.077,1.795,1.170,2.033,1.405,0.559,1.026,0.954,���k��,5.4,��
2017/01/15,11:10,1.077,1.793,1.170,2.033,1.405,0.559,1.027,0.952,�k��,5.2,��
2017/01/15,11:20,1.079,1.794,1.169,2.036,1.408,0.559,1.027,0.952,���k��,7.1,��
2017/01/15,11:30,1.079,1.795,1.170,2.032,1.408,0.558,1.027,0.954,�k��,8.0,��
2017/01/15,11:40,1.079,1.794,1.171,2.037,1.406,0.560,1.025,0.955,���k��,6.8,��
2017/01/15,11:50,1.079,1.795,1.169,2.036,1.409,0.560,1.028,0.954,�k��,8.9,��
2017/01/15,12:00,1.080,1.798,1.172,2.036,1.410,0.560,1.027,0.954,���k��,8.8,��
2017/01/15,12:10,1.079,1.798,1.174,2.037,1.407,0.561,1.026,0.956,�k��,11.0,��
2017/01/15,12:20,1.081,1.798,1.173,2.036,1.412,0.559,1.028,0.955,�k��,9.3,��
2017/01/15,12:30,1.083,1.795,1.177,2.035,1.409,0.559,1.028,0.956,�k��,8.3,��
2017/01/15,12:40,1.083,1.799,1.173,2.036,1.410,0.560,1.030,0.955,���k��,8.0,��
2017/01/15,12:50,1.082,1.798,1.174,2.038,1.410,0.559,1.028,0.955,���k��,9.8,��
2017/01/15,13:00,1.080,1.795,1.172,2.036,1.412,0.558,1.029,0.955,�k��,9.0,��
2017/01/15,13:10,1.084,1.797,1.174,2.036,1.412,0.560,1.029,0.954,���k��,7.3,��
2017/01/15,13:20,1.083,1.797,1.175,2.038,1.412,0.560,1.030,0.955,���k��,6.8,��
2017/01/15,13:30,1.081,1.799,1.175,2.038,1.412,0.561,1.028,0.954,���k��,9.2,��
2017/01/15,13:40,1.080,1.800,1.175,2.039,1.412,0.561,1.028,0.957,���k��,8.2,��
2017/01/15,13:50,1.080,1.800,1.176,2.035,1.413,0.561,1.028,0.952,�k��,9.8,��
2017/01/15,14:00,1.078,1.800,1.174,2.038,1.415,0.560,1.028,0.954,�k��,7.8,��
2017/01/15,14:10,1.082,1.798,1.177,2.040,1.410,0.560,1.027,0.955,�k��,5.4,��
2017/01/15,14:20,1.082,1.800,1.172,2.038,1.414,0.560,1.028,0.953,�k��,5.8,��
2017/01/15,14:30,1.081,1.803,1.176,2.039,1.413,0.561,1.030,0.956,���k��,5.2,��
2017/01/15,14:40,1.082,1.800,1.175,2.039,1.413,0.560,1.029,0.953,���k��,4.1,��
2017/01/15,14:50,1.081,1.801,1.176,2.038,1.413,0.561,1.028,0.954,��,4.3,��
2017/01/15,15:00,1.084,1.800,1.177,2.039,1.412,0.559,1.029,0.955,�k��,7.2,��
2017/01/15,15:10,1.082,1.800,1.175,2.037,1.412,0.561,1.027,0.954,���k��,4.8,��
2017/01/15,15:20,1.079,1.800,1.178,2.039,1.414,0.560,1.027,0.954,���k��,7.1,��
2017/01/15,15:30,1.081,1.799,1.176,2.038,1.411,0.561,1.028,0.955,��,6.5,��
2017/01/15,15:40,1.082,1.802,1.178,2.038,1.411,0.558,1.027,0.955,��,5.6,��
2017/01/15,15:50,1.081,1.799,1.176,2.039,1.412,0.560,1.026,0.954,��,5.7,��
2017/01/15,16:00,1.082,1.799,1.174,2.037,1.412,0.558,1.028,0.955,���k��,5.3,��
2017/01/15,16:10,1.082,1.798,1.174,2.039,1.412,0.561,1.026,0.953,���k��,6.7,��
2017/01/15,16:20,1.081,1.801,1.175,2.035,1.410,0.558,1.028,0.953,���k��,6.6,��
2017/01/15,16:30,1.079,1.799,1.173,2.039,1.415,0.558,1.027,0.954,���k��,7.7,��
2017/01/15,16:40,1.079,1.799,1.176,2.035,1.411,0.559,1.030,0.953,���k��,4.2,��
2017/01/15,16:50,1.079,1.803,1.172,2.037,1.412,0.560,1.028,0.954,�k��,2.8,��
2017/01/15,17:00,1.079,1.798,1.172,2.037,1.409,0.559,1.027,0.952,�k��,3.4,��
2017/01/15,17:10,1.080,1.803,1.172,2.037,1.412,0.559,1.027,0.955,�k��,3.6,��
2017/01/15,17:20,1.077,1.798,1.174,2.036,1.412,0.559,1.028,0.954,�k��,3.5,��
2017/01/15,17:30,1.079,1.798,1.172,2.036,1.411,0.560,1.027,0.954,�k��,3.3,��
2017/01/15,17:40,1.080,1.798,1.170,2.036,1.409,0.559,1.027,0.954,���k��,2.3,��
2017/01/15,17:50,1.077,1.797,1.172,2.036,1.408,0.559,1.027,0.951,�k��,3.7,��
2017/01/15,18:00,1.078,1.797,1.172,2.036,1.413,0.559,1.025,0.953,���k��,3.9,��
2017/01/15,18:10,1.080,1.794,1.170,2.038,1.411,0.560,1.027,0.954,���k��,6.2,��
2017/01/15,18:20,1.077,1.796,1.172,2.035,1.410,0.558,1.028,0.953,�k��,6.4,��
2017/01/15,18:30,1.078,1.797,1.172,2.037,1.412,0.560,1.024,0.952,���k��,3.2,��
2017/01/15,18:40,1.076,1.799,1.172,2.038,1.411,0.558,1.025,0.953,�k��,4.0,��
2017/01/15,18:50,1.078,1.797,1.173,2.036,1.408,0.558,1.025,0.952,�k��,4.5,��
2017/01/15,19:00,1.077,1.797,1.174,2.036,1.411,0.558,1.026,0.953,�k��,4.2,��
2017/01/15,19:10,1.077,1.798,1.173,2.036,1.410,0.558,1.026,0.952,�k��,4.5,��
2017/01/15,19:20,1.077,1.796,1.173,2.039,1.409,0.558,1.025,0.952,���k��,3.6,��
2017/01/15,19:30,1.077,1.796,1.171,2.036,1.412,0.559,1.026,0.952,��,2.3,��
2017/01/15,19:40,1.076,1.798,1.171,2.035,1.409,0.558,1.026,0.954,���쐼,4.1,��
2017/01/15,19:50,1.077,1.795,1.169,2.037,1.407,0.558,1.028,0.952,��,4.9,��
2017/01/15,20:00,1.077,1.795,1.170,2.034,1.408,0.557,1.026,0.952,��,3.6,��
2017/01/15,20:10,1.076,1.796,1.170,2.036,1.409,0.558,1.025,0.952,��,2.9,��
2017/01/15,20:20,1.075,1.798,1.172,2.037,1.408,0.558,1.026,0.953,��,2.8,��
2017/01/15,20:30,1.076,1.795,1.170,2.035,1.408,0.558,1.029,0.953,��,2.3,��
2017/01/15,20:40,1.077,1.796,1.170,2.036,1.407,0.557,1.028,0.953,���k��,1.7,��
2017/01/15,20:50,1.078,1.798,1.170,2.038,1.407,0.559,1.030,0.952,���k��,2.3,��
2017/01/15,21:00,1.077,1.795,1.171,2.036,1.406,0.559,1.027,0.952,�k��,3.1,��
2017/01/15,21:10,1.076,1.798,1.169,2.034,1.409,0.558,1.026,0.952,���k��,3.7,��
2017/01/15,21:20,1.078,1.798,1.172,2.037,1.407,0.560,1.025,0.952,���k��,3.1,��
2017/01/15,21:30,1.076,1.792,1.171,2.034,1.407,0.558,1.026,0.952,���k��,2.8,��
2017/01/15,21:40,1.076,1.798,1.170,2.034,1.408,0.558,1.025,0.953,��,2.0,��
2017/01/15,21:50,1.077,1.797,1.171,2.030,1.407,0.557,1.027,0.953,���쐼,2.3,��
2017/01/15,22:00,1.075,1.793,1.171,2.033,1.408,0.559,1.025,0.952,��,3.2,��
2017/01/15,22:10,1.074,1.795,1.170,2.037,1.404,0.559,1.024,0.952,���k��,4.8,��
2017/01/15,22:20,1.076,1.793,1.171,2.038,1.405,0.557,1.025,0.953,��,4.8,��
2017/01/15,22:30,1.077,1.794,1.168,2.033,1.404,0.557,1.026,0.951,��,3.8,��
2017/01/15,22:40,1.075,1.791,1.170,2.035,1.406,0.558,1.027,0.953,���k��,4.8,��
2017/01/15,22:50,1.074,1.791,1.170,2.038,1.404,0.558,1.026,0.951,���k��,4.9,��
2017/01/15,23:00,1.078,1.795,1.169,2.034,1.407,0.559,1.027,0.953,���k��,4.9,��
2017/01/15,23:10,1.078,1.795,1.167,2.035,1.402,0.558,1.028,0.954,���k��,5.5,��
2017/01/15,23:20,1.073,1.798,1.170,2.034,1.406,0.558,1.027,0.951,���k��,6.4,��
2017/01/15,23:30,1.077,1.796,1.172,2.037,1.403,0.557,1.026,0.953,���k��,6.5,��
2017/01/15,23:40,1.075,1.797,1.169,2.034,1.406,0.559,1.026,0.951,���k��,8.1,��
2017/01/15,23:50,1.076,1.795,1.169,2.036,1.408,0.557,1.027,0.951,���k��,5.7,��
